SCOUT A DEB, 3213

Orbit data source: Space-Track

SCOUT A DEB, 3213 is space debris in LEO originally from a launch on Sat, 02 Mar 1968 UTC launched from the Air Force Western Test Range (AFWTR). Debris objects in space refer to the collection of defunct objects orbiting the Earth. Examples of debris include non-operational satellites, rocket bodies, and fragments generated from explosions, collisions, or faulty payload assembly.

Loading next visibility...
Identifier
3213, 1968-012C
Orbit
LEO
Country
Flag of USUS
Related business
Manufacturer
Unknown
Mission
Spacecraft
Bus & Motor
Unknown
Mass
Unknown
Launch date (UTC)
1968-03-02 (58 years ago)
Launch vehicle
Unknown
Launch site
Air Force Western Test Range (AFWTR)
Object type
Payload
Rocket body
Debris
Shape & HBR
Unknown
Radar Cross Section
Small (<0.1 m²)

Expand to show TLE details & history
Last TLE update: 11 hours ago

TLE from 11 hours ago
0 SCOUT A DEB
1 03213U 68012C   25243.12116919  .00000532  00000-0  42663-3 0  9996
2 03213  90.2179 106.8739 0051486 160.3961 327.4423 13.89030472570175
Epoch: 2025-08-31T02:54Z
TLE epoch observation values (Epoch: 2025-08-31T02:54:29.018Z)
Latitude
52.57701°
Longitude
-96.0094°
Altitude
909.001 km
Speed
7.418 km/s
True Right ascension
19h 08m 37s
True Declination
52° 24' 52"
Sunlit
Object was in daylight at epoch
Visualization orbit readout
Latitude
Unknown
Longitude
Unknown
Altitude
Unknown
Speed
Unknown
Apparent Right ascension
Unknown
Apparent Declination
Unknown
Sunlit
N/A
Visualization observer readout
Local Sidereal Time
05:09:30
Azimuth
Unknown
Elevation
Unknown
Doppler factor
Unknown
Orbital elements
Apogee altitude
966.645 km
Perigee altitude
891.402 km
Semi-major axis
7,307.161 km
Eccentricity
0.00515
Inclination
90.2179°
RAAN
106.8739°
Arg. of periapsis
160.3961°
True anomaly
327.12307°
Mean anomaly
327.4423°
Eccentric anomaly
327.28286°
Mean motion
3.47472 °/min
Orbital period
103.61 mins
BSTAR
0.00042663
Loading maneuver chart data...
Computing Atmospheric mass density...
Loading historical data...
Loading historical data...
Loading historical data...
Loading historical data...
Loading historical data...
Loading historical data...
Loading historical data...

Documentation

Showing up to 5 results
|